Flag for Italy Weather past 2 weeks in Modena, Italy

Now
59 °F

Clear.


Feels Like: 57 °F
Forecast: 40 / 68 °F
Wind: 10 mph from Northwest

Location: Bologna / Borgo Panigale

Current Time: Apr 1, 2015 at 3:32:34 AM

Latest Report: Apr 1, 2015 at 2:50 AM


Visibility: 10 mi

Pressure: 29.74 "Hg

Humidity: 34%

Dew point: 30 °F

Location of ModenaLocation

Historic Weather in Modena — Graph

°F

Modena temperature yesterday

Maximum temperature yesterday: 73 °F (at 4:20 PM)
Minimum temperature yesterday: 46 °F (at 7:20 AM)
Average temperature yesterday: 61 °F

Past Weeks' High & Low Weather Summary

 TemperatureHumidityPressure
High75 °F (Mar 30, 5:50 PM)100% (Mar 17, 6:50 AM)30.33 "Hg (Mar 17, 6:50 AM)
Low39 °F (Mar 19, 11:50 PM)26% (Mar 28, 4:50 PM)29.45 "Hg (Mar 25, 1:20 PM)
Average52 °F76%29.94 "Hg
* Reported Mar 17 1:20 AM — Apr 1 2:20 AM, Modena, Weather by CustomWeather, © 2015

Note: Actual official high and low records may vary slightly from our data, if they occured in-between our weather recording intervals... More about our weather records

Advertising

Modena weather history for previous 24 hours

 ConditionsComfort  
Time TempWeatherWind HumidityBarometerVisibility
2:20 AM
Wed, Apr 1
54 °FClear.8 mph51%29.74 "Hg10 mi
1:50 AM59 °FClear.5 mph42%29.74 "Hg10 mi
1:20 AM61 °FPassing clouds.6 mph36%29.74 "HgN/A
12:50 AM64 °FPassing clouds.8 mph32%29.71 "HgN/A
12:20 AM66 °FClear.21 mph32%29.68 "Hg10 mi
11:50 PM
Tue, Mar 31
64 °FClear.14 mph40%29.68 "Hg10 mi
11:20 PM64 °FClear.12 mph49%29.65 "Hg10 mi
10:50 PM61 °FClear.6 mph59%29.65 "Hg10 mi
10:20 PM63 °FClear.8 mph52%29.62 "Hg10 mi
9:50 PM63 °FClear.8 mph52%29.62 "Hg10 mi
9:20 PM63 °FClear.9 mph52%29.62 "Hg10 mi
8:50 PM64 °FClear.13 mph52%29.59 "Hg10 mi
8:20 PM64 °FSunny.8 mph52%29.59 "Hg10 mi
7:50 PM64 °FSunny.14 mph52%29.56 "Hg10 mi
7:20 PM66 °FSunny.14 mph49%29.56 "Hg10 mi
6:50 PM68 °FSunny.15 mph49%29.56 "Hg10 mi
6:20 PM70 °FSunny.10 mph43%29.56 "Hg10 mi
5:50 PM72 °FSunny.14 mph41%29.56 "Hg10 mi
5:20 PM72 °FSunny.18 mph41%29.59 "Hg10 mi
4:50 PM73 °FPassing clouds.13 mph41%29.59 "HgN/A
4:20 PM73 °FSunny.8 mph41%29.62 "Hg10 mi
3:50 PM72 °FPassing clouds.3 mph53%29.65 "HgN/A
3:20 PM72 °FSunny.3 mph53%29.65 "Hg10 mi
2:50 PM70 °FPassing clouds.5 mph53%29.68 "HgN/A
2:20 PM68 °FPassing clouds.5 mph64%29.71 "HgN/A
1:50 PM68 °FPassing clouds.5 mph56%29.71 "HgN/A
1:20 PM68 °FSunny.3 mph56%29.71 "Hg10 mi
12:50 PM66 °FPassing clouds.5 mph52%29.74 "HgN/A
12:20 PM64 °FSunny.3 mph52%29.74 "Hg10 mi
11:50 AM64 °FPassing clouds.6 mph49%29.77 "HgN/A
11:20 AM64 °FSunny.2 mph49%29.80 "Hg10 mi
10:50 AM63 °FPassing clouds.5 mph52%29.80 "HgN/A
10:20 AM61 °FSunny.2 mph59%29.80 "Hg10 mi
9:50 AM57 °FSunny.2 mph72%29.80 "Hg10 mi
9:20 AM55 °FSunny.3 mph72%29.83 "Hg10 mi
8:50 AM52 °FSunny.2 mph82%29.83 "Hg10 mi
8:20 AM50 °FSunny.2 mph88%29.83 "Hg10 mi
7:50 AM50 °FClear.1 mph82%29.83 "Hg10 mi
7:20 AM46 °FClear.6 mph87%29.83 "Hg10 mi
6:50 AM50 °FPassing clouds.3 mph76%29.80 "HgN/A
6:20 AM52 °FPassing clouds.3 mph72%29.83 "HgN/A
5:50 AM52 °FPassing clouds.3 mph72%29.80 "HgN/A
5:20 AM50 °FClear.6 mph82%29.80 "Hg10 mi
4:50 AM52 °FClear.8 mph77%29.80 "Hg10 mi
4:20 AM50 °FClear.9 mph82%29.83 "Hg10 mi
3:50 AM52 °FClear.7 mph77%29.86 "Hg10 mi
3:20 AM52 °FClear.8 mph77%29.83 "Hg10 mi
Weather by CustomWeather, © 2015

See weather overviewHow to use our weather pages